Glencoe, MN

9:20 PM CDT on March 23, 2017 (GMT -0500)
Glencoe Municipal

Weather History for KGYL - April, 2014

Change the Weather History Date:

Saturday, April 5, 2014

  Actual Average (KHCD) Record (KHCD)
Temperature  
Mean Temperature 35 °F -  
Max Temperature 49 °F 51 °F 75 °F (1991)
Min Temperature 22 °F 30 °F 14 °F (2007)
Degree Days  
Heating Degree Days 30    
Moisture  
Dew Point 29 °F    
Average Humidity 75    
Maximum Humidity 90    
Minimum Humidity 59    
Precipitation  
Precipitation 0.00 in - - ()
Sea Level Pressure  
Sea Level Pressure 30.03 in    
Wind  
Wind Speed 6 mph (South)    
Max Wind Speed 13 mph    
Max Gust Speed 21 mph    
Visibility 9 miles    
Events      
Averages and records for this station are not official NWS values.
T = Trace of Precipitation, MM = Missing Value Source: NWS Daily Summary

Daily Weather History Graph

Daily Weather History Graph

Search for Another Location

Airport or City:

Trip Planner

Search our weather history database for the weather conditions in past years. The results will help you decide how hot, cold, wet, or windy it might be!

Date:

Astronomy

Apr. 05, 2014 Rise Set
Actual Time 6:49 AM CDT 7:48 PM CDT
Civil Twilight 6:19 AM CDT 8:18 PM CDT
Nautical Twilight 5:44 AM CDT 8:54 PM CDT
Astronomical Twilight 5:07 AM CDT 9:31 PM CDT
Moon 10:49 AM CDT (4/5) 1:08 AM CDT (4/5)
Length of Visible Light 13h 58m
Length of Day
12h 59m
Waxing Crescent, 34% of the Moon is Illuminated
Apr 5
Waxing Crescent
Apr 7
First Quarter
Apr 15
Full
Apr 22
Last Quarter
Apr 29
New

Hourly Weather History & Observations

Time (CDT) Temp. Windchill Dew Point Humidity Pressure Visibility Wind Dir Wind Speed Gust Speed Precip Events Conditions
12:13 AM 30.6 °F 25.8 °F 26.2 °F 84% 30.06 in 10.0 mi WSW 4.6 mph - N/A   Clear
12:32 AM 29.5 °F 24.5 °F 25.7 °F 86% 30.06 in 10.0 mi WSW 4.6 mph - N/A   Clear
12:53 AM 28.9 °F 23.9 °F 25.3 °F 86% 30.06 in 10.0 mi West 4.6 mph - N/A   Clear
1:13 AM 28.9 °F 25.2 °F 25.5 °F 87% 30.06 in 10.0 mi West 3.5 mph - N/A   Clear
1:33 AM 28.4 °F 24.6 °F 25.2 °F 88% 30.07 in 10.0 mi WSW 3.5 mph - N/A   Clear
1:52 AM 28.0 °F 24.2 °F 24.8 °F 88% 30.07 in 10.0 mi WSW 3.5 mph - N/A   Clear
2:13 AM 27.9 °F 24.0 °F 24.8 °F 88% 30.07 in 10.0 mi WSW 3.5 mph - N/A   Clear
2:32 AM 27.5 °F 23.6 °F 24.4 °F 88% 30.08 in 10.0 mi WSW 3.5 mph - N/A   Clear
2:53 AM 27.1 °F 21.8 °F 24.3 °F 89% 30.07 in 10.0 mi SW 4.6 mph - N/A   Clear
3:13 AM 26.4 °F - 23.7 °F 90% 30.07 in 7.0 mi Calm Calm - N/A   Clear
3:33 AM 26.4 °F 20.9 °F 23.7 °F 90% 30.08 in 7.0 mi SW 4.6 mph - N/A   Clear
3:52 AM 25.9 °F 19.2 °F 23.2 °F 90% 30.08 in 7.0 mi SW 5.8 mph - N/A   Clear
4:13 AM 25.5 °F 19.9 °F 22.8 °F 89% 30.08 in 7.0 mi WSW 4.6 mph - N/A   Clear
4:32 AM 25.7 °F 20.1 °F 23.0 °F 89% 30.08 in 7.0 mi SW 4.6 mph - N/A   Clear
4:53 AM 24.6 °F 20.3 °F 21.7 °F 89% 30.07 in 7.0 mi SW 3.5 mph - N/A   Clear
5:13 AM 24.6 °F 18.8 °F 21.7 °F 89% 30.07 in 7.0 mi SW 4.6 mph - N/A   Clear
5:32 AM 24.4 °F 20.1 °F 21.6 °F 89% 30.07 in 7.0 mi SW 3.5 mph - N/A   Clear
5:52 AM 22.5 °F - 19.2 °F 87% 30.07 in 7.0 mi Calm Calm - N/A   Clear
6:13 AM 22.8 °F - 20.1 °F 89% 30.07 in 7.0 mi Calm Calm - N/A   Clear
6:32 AM 23.0 °F 18.4 °F 20.3 °F 89% 30.07 in 7.0 mi South 3.5 mph - N/A   Clear
6:53 AM 22.3 °F 17.6 °F 19.4 °F 89% 30.07 in 5.0 mi South 3.5 mph - N/A   Clear
7:13 AM 24.3 °F - 21.2 °F 88% 30.08 in 7.0 mi Calm Calm - N/A   Clear
7:33 AM 24.6 °F 20.3 °F 21.9 °F 89% 30.09 in 7.0 mi South 3.5 mph - N/A   Clear
7:53 AM 25.2 °F 20.9 °F 22.5 °F 89% 30.09 in 7.0 mi South 3.5 mph - N/A   Clear
8:13 AM 26.2 °F 20.7 °F 23.5 °F 90% 30.09 in 7.0 mi South 4.6 mph - N/A   Clear
8:33 AM 27.3 °F 22.0 °F 24.6 °F 90% 30.09 in 10.0 mi South 4.6 mph - N/A   Clear
8:53 AM 29.1 °F 22.1 °F 26.2 °F 89% 30.10 in 10.0 mi South 6.9 mph - N/A   Clear
9:13 AM 30.9 °F 24.3 °F 25.9 °F 82% 30.09 in 10.0 mi South 6.9 mph - N/A   Clear
9:33 AM 32.0 °F 24.8 °F 25.7 °F 78% 30.09 in 10.0 mi South 8.1 mph - N/A   Clear
9:53 AM 33.4 °F 26.6 °F 25.9 °F 74% 30.09 in 10.0 mi South 8.1 mph - N/A   Clear
10:13 AM 34.9 °F 27.1 °F 26.6 °F 72% 30.09 in 10.0 mi South 10.4 mph - N/A   Clear
10:33 AM 36.0 °F 29.0 °F 27.0 °F 70% 30.09 in 10.0 mi South 9.2 mph - N/A   Clear
10:53 AM 37.0 °F 29.8 °F 27.5 °F 68% 30.09 in 10.0 mi South 10.4 mph - N/A   Clear
11:13 AM 37.6 °F 31.6 °F 28.2 °F 69% 30.09 in 10.0 mi South 8.1 mph - N/A   Clear
11:33 AM 38.3 °F 31.9 °F 28.6 °F 68% 30.08 in 10.0 mi South 9.2 mph 16.1 mph N/A   Clear
11:53 AM 39.0 °F 31.8 °F 28.9 °F 67% 30.07 in 10.0 mi South 11.5 mph 17.3 mph N/A   Clear
12:13 PM 40.1 °F 34.7 °F 29.5 °F 66% 30.07 in 10.0 mi South 8.1 mph - N/A   Clear
12:33 PM 40.3 °F 33.4 °F 29.7 °F 66% 30.07 in 10.0 mi South 11.5 mph 19.6 mph N/A   Clear
12:53 PM 41.0 °F 33.9 °F 30.2 °F 65% 30.06 in 10.0 mi South 12.7 mph 17.3 mph N/A   Clear
1:13 PM 42.4 °F 38.8 °F 31.3 °F 65% 30.06 in 10.0 mi South 5.8 mph - N/A   Clear
1:33 PM 43.0 °F 36.8 °F 30.9 °F 62% 30.05 in 10.0 mi SSE 11.5 mph 17.3 mph N/A   Clear
1:53 PM 43.7 °F 38.1 °F 30.9 °F 61% 30.04 in 10.0 mi South 10.4 mph 17.3 mph N/A   Clear
2:13 PM 44.6 °F 39.2 °F 32.0 °F 61% 30.03 in 10.0 mi SSE 10.4 mph 20.7 mph N/A   Clear
2:33 PM 45.5 °F 39.9 °F 32.2 °F 60% 30.03 in 10.0 mi South 11.5 mph 17.3 mph N/A   Clear
2:53 PM 45.9 °F 40.0 °F 32.2 °F 59% 30.02 in 10.0 mi South 12.7 mph 19.6 mph N/A   Clear
3:13 PM 46.6 °F - 33.4 °F 60% 30.01 in 10.0 mi South 11.5 mph 18.4 mph N/A   Clear
3:33 PM 47.3 °F - 34.2 °F 60% 30.00 in 10.0 mi South 10.4 mph 18.4 mph N/A   Clear
3:53 PM 47.5 °F - 34.3 °F 60% 29.99 in 10.0 mi South 11.5 mph 18.4 mph N/A   Clear
4:12 PM 46.6 °F - 34.3 °F 62% 29.98 in 10.0 mi South 10.4 mph 17.3 mph N/A   Scattered Clouds
4:33 PM 47.3 °F - 35.6 °F 64% 29.97 in 10.0 mi South 9.2 mph - N/A   Mostly Cloudy
4:53 PM 46.6 °F - 36.1 °F 67% 29.97 in 10.0 mi South 4.6 mph - N/A   Overcast
5:13 PM 47.3 °F - 36.7 °F 67% 29.97 in 10.0 mi SSE 5.8 mph - N/A   Overcast
5:33 PM 48.4 °F - 37.4 °F 66% 29.96 in 10.0 mi SSE 8.1 mph - N/A   Overcast
5:53 PM 48.4 °F - 37.4 °F 66% 29.96 in 10.0 mi SSE 8.1 mph - N/A   Overcast
6:13 PM 48.4 °F - 37.8 °F 67% 29.95 in 10.0 mi SSE 6.9 mph - N/A   Overcast
6:33 PM 48.2 °F - 37.8 °F 67% 29.95 in 10.0 mi SSE 5.8 mph - N/A   Overcast
6:53 PM 48.2 °F - 37.6 °F 67% 29.95 in 10.0 mi SSE 6.9 mph - N/A   Mostly Cloudy
7:13 PM 47.5 °F - 37.4 °F 68% 29.94 in 10.0 mi SE 8.1 mph - N/A   Overcast
7:33 PM 45.9 °F 41.7 °F 37.4 °F 72% 29.94 in 10.0 mi SE 8.1 mph - N/A   Overcast
7:53 PM 45.0 °F 41.8 °F 36.9 °F 73% 29.94 in 10.0 mi SE 5.8 mph - N/A   Mostly Cloudy
8:12 PM 45.0 °F 41.2 °F 36.3 °F 72% 29.95 in 10.0 mi SSE 6.9 mph - N/A   Mostly Cloudy
8:33 PM 44.8 °F 41.6 °F 35.8 °F 71% 29.96 in 10.0 mi South 5.8 mph - N/A   Mostly Cloudy
8:53 PM 44.1 °F 40.1 °F 35.6 °F 72% 29.95 in 10.0 mi SSE 6.9 mph - N/A   Scattered Clouds
9:13 PM 43.0 °F 37.7 °F 34.9 °F 73% 29.95 in 10.0 mi SSE 9.2 mph - N/A   Clear
9:32 PM 43.2 °F 37.0 °F 34.3 °F 71% 29.94 in 10.0 mi SSE 11.5 mph - N/A   Clear
9:53 PM 43.5 °F 38.3 °F 33.8 °F 69% 29.94 in 10.0 mi SSE 9.2 mph 16.1 mph N/A   Clear
10:12 PM 43.5 °F 37.9 °F 33.4 °F 68% 29.94 in 10.0 mi SSE 10.4 mph 17.3 mph N/A   Clear
10:32 PM 43.2 °F 37.4 °F 32.9 °F 67% 29.94 in 10.0 mi SSE 10.4 mph - N/A   Clear
10:53 PM 42.8 °F 38.0 °F 32.9 °F 68% 29.93 in 10.0 mi SSE 8.1 mph - N/A   Clear
11:12 PM 42.8 °F 37.5 °F 32.5 °F 67% 29.93 in 10.0 mi SSE 9.2 mph 17.3 mph N/A   Clear
11:33 PM 42.3 °F 36.3 °F 32.2 °F 67% 29.92 in 10.0 mi SSE 10.4 mph 17.3 mph N/A   Clear
11:52 PM 41.9 °F 36.3 °F 32.0 °F 68% 29.92 in 10.0 mi SSE 9.2 mph 16.1 mph N/A   Clear